This demonstration page uses our WeatherBlox Daily Observations layout. Learn more.

Left ArrowRight Arrow

39.08367, -84.50855

Hourly Observations for December 29, 2020

Temp ( °F °C ) Dew Point ( °F °C ) Humidity (%) Winds ( mph kmh ) Pressure ( in mb ) Visibility ( mi km ) Precip ( " mm )
12:13 am 00:13 Cloudy 30 -1.1 21 -6.1 69 69 NW 5 7 30.53 1034 10 16.0934 0 0
12:53 am 00:53 Cloudy 30 -1.1 20 -6.7 66 66 NW 6 9 30.52 1033 10 16.0934 0 0
1:53 am 01:53 Mostly Cloudy 29 -1.7 20 -6.7 69 69 NW 8 13 30.53 1034 10 16.0934 0 0
2:53 am 02:53 Cloudy 29 -1.7 20 -6.7 69 69 WNW 7 11 30.53 1034 10 16.0934 0 0
3:53 am 03:53 Cloudy 30 -1.1 20 -6.7 66 66 WNW 6 9 30.55 1035 10 16.0934 0 0
4:53 am 04:53 Cloudy 30 -1.1 18 -7.8 61 61 NNW 7 11 30.57 1035 10 16.0934 0 0
5:53 am 05:53 Partly Cloudy 28 -2.2 17 -8.3 63 63 NNE 5 7 30.58 1036 10 16.0934 0 0
6:53 am 06:53 Clear 26 -3.3 19 -7.2 75 75 NE 3 6 30.6 1036 10 16.0934 0 0
7:53 am 07:53 Clear 24 -4.4 19 -7.2 81 81 NNE 3 6 30.62 1037 10 16.0934 0 0
8:53 am 08:53 Sunny 25 -3.9 21 -6.1 85 85 NE 3 6 30.63 1037 10 16.0934 0 0
9:53 am 09:53 Sunny 29 -1.7 21 -6.1 72 72 ENE 7 11 30.64 1038 10 16.0934 0 0
10:53 am 10:53 Sunny 33 0.6 21 -6.1 61 61 NNE 6 9 30.63 1037 10 16.0934 0 0
11:53 am 11:53 Sunny 34 1.1 20 -6.7 56 56 E 8 13 30.58 1035 10 16.0934 0 0
12:53 pm 12:53 Sunny 37 2.8 18 -7.8 46 46 VRB 7 11 30.54 1034 10 16.0934 0 0
1:53 pm 13:53 Sunny 39 3.9 18 -7.8 43 43 Calm 30.53 1034 10 16.0934 0 0
2:53 pm 14:53 Partly Cloudy 38 3.3 18 -7.8 44 44 VRB 6 9 30.5 1033 10 16.0934 0 0
3:53 pm 15:53 Mostly Cloudy 38 3.3 19 -7.2 46 46 E 8 13 30.47 1032 10 16.0934 0 0
4:53 pm 16:53 Cloudy 37 2.8 19 -7.2 48 48 E 10 17 30.47 1032 10 16.0934 0 0
5:53 pm 17:53 Partly Cloudy 37 2.8 19 -7.2 48 48 E 6 9 30.45 1031 10 16.0934 0 0
6:53 pm 18:53 Cloudy 37 2.8 19 -7.2 48 48 ENE 8 13 30.42 1030 10 16.0934 0 0
7:53 pm 19:53 Cloudy 36 2.2 20 -6.7 52 52 ESE 6 9 30.41 1030 10 16.0934 0 0
8:53 pm 20:53 Partly Cloudy 37 2.8 21 -6.1 52 52 NE 5 7 30.41 1030 10 16.0934 0 0
9:53 pm 21:53 Mostly Clear 35 1.7 21 -6.1 57 57 E 3 6 30.37 1029 10 16.0934 0 0
10:53 pm 22:53 Clear 34 1.1 21 -6.1 59 59 SE 3 6 30.33 1027 10 16.0934 0 0
11:53 pm 23:53 Mostly Clear 35 1.7 22 -5.6 59 59 Calm 30.28 1025 10 16.0934 0 0

Powered by AerisWeather